EW5759 Weather Reports


Display with metric or nautical units.
time (UTC)temp
F
wind
direction
speed
MPH
gust
MPH
rain 1hr
in
rain 24hr
in
rain mn
in
humidity
%
barometer
mb
20260506073529 65 126 6.0 9.0 0.00 0.00 0.00 58 1007.5
20260506073046 65 129 4.0 10.0 0.00 0.00 0.00 58 1007.5
20260506072529 65 152 6.0 12.0 0.00 0.00 0.00 57 1007.6
20260506072028 65 172 8.0 12.0 0.00 0.00 0.00 57 1007.7
20260506071539 65 167 7.0 13.0 0.00 0.00 0.00 57 1007.7
20260506071033 65 165 7.0 13.0 0.00 0.00 0.00 57 1007.7
20260506070531 65 148 8.0 13.0 0.00 0.00 0.00 56 1007.7
20260506062030 64 148 6.0 9.0 0.00 0.00 0.00 58 1008.3
20260506061542 64 138 5.0 8.0 0.00 0.00 0.00 58 1008.5
20260506061029 64 139 6.0 8.0 0.00 0.00 0.00 58 1008.6
20260506060529 64 150 5.0 7.0 0.00 0.00 0.00 58 1008.7
20260506051033 64 142 4.0 5.0 0.00 0.00 0.00 55 1009.3
20260506050532 65 148 4.0 6.0 0.00 0.00 0.00 54 1009.3
20260506045030 64 149 4.0 6.0 0.00 0.00 0.00 55 1009.5
20260506044557 64 145 4.0 5.0 0.00 0.00 0.00 55 1009.4
20260506044029 64 143 4.0 5.0 0.00 0.00 0.00 54 1009.4
20260506043529 64 143 4.0 6.0 0.00 0.00 0.00 54 1009.4
20260506043044 64 141 5.0 6.0 0.00 0.00 0.00 52 1009.4
20260506042531 65 147 5.0 9.0 0.00 0.00 0.00 51 1009.3
20260506042029 66 150 5.0 9.0 0.00 0.00 0.00 49 1009.4
20260506041548 67 153 6.0 9.0 0.00 0.00 0.00 47 1009.4
20260506041028 67 162 5.0 8.0 0.00 0.00 0.00 46 1009.4
20260506040530 67 155 4.0 10.0 0.00 0.00 0.00 46 1009.4
20260506040046 67 162 5.0 10.0 0.00 0.00 0.00 46 1009.4
20260506035532 67 169 5.0 10.0 0.00 0.00 0.00 45 1009.3
20260506035028 67 160 6.0 8.0 0.00 0.00 0.00 46 1009.3
20260506034543 67 160 5.0 7.0 0.00 0.00 0.00 46 1009.3
20260506034031 67 151 5.0 7.0 0.00 0.00 0.00 46 1009.3
20260506033531 67 151 5.0 7.0 0.00 0.00 0.00 46 1009.3
20260506033042 66 163 5.0 7.0 0.00 0.00 0.00 47 1009.3
20260506032528 66 152 4.0 7.0 0.00 0.00 0.00 47 1009.3
20260506032031 66 148 4.0 7.0 0.00 0.00 0.00 47 1009.3
20260506031544 66 143 4.0 8.0 0.00 0.00 0.00 46 1009.2
20260506031030 67 146 4.0 8.0 0.00 0.00 0.00 46 1009.2
20260506030528 67 150 3.0 7.0 0.00 0.00 0.00 45 1009.2
20260506030044 68 153 4.0 9.0 0.00 0.00 0.00 44 1009.2
20260506025530 68 155 5.0 10.0 0.00 0.00 0.00 42 1009.2
20260506025033 68 160 6.0 10.0 0.00 0.00 0.00 42 1009.3
20260506024548 68 167 6.0 9.0 0.00 0.00 0.00 43 1009.3
20260506024029 68 176 5.0 9.0 0.00 0.00 0.00 42 1009.3
20260506023531 68 165 5.0 9.0 0.00 0.00 0.00 42 1009.3
20260506023054 69 174 5.0 9.0 0.00 0.00 0.00 42 1009.2
20260506022528 69 160 6.0 9.0 0.00 0.00 0.00 41 1009.2
20260506022031 70 149 5.0 9.0 0.00 0.00 0.00 41 1009.3
20260506021547 70 150 6.0 10.0 0.00 0.00 0.00 40 1009.3
20260506021029 70 184 5.0 10.0 0.00 0.00 0.00 39 1009.3
20260506020528 70 189 7.0 10.0 0.00 0.00 0.00 39 1009.2
20260506020047 70 209 6.0 10.0 0.00 0.00 0.00 40 1009.3
20260506015529 70 175 4.0 9.0 0.00 0.00 0.00 40 1009.3
20260506015034 70 160 5.0 10.0 0.00 0.00 0.00 40 1009.3
20260506014545 70 181 5.0 10.0 0.00 0.00 0.00 41 1009.2
20260506014030 70 198 5.0 10.0 0.00 0.00 0.00 41 1009.3
20260506013529 70 183 6.0 10.0 0.00 0.00 0.00 41 1009.2
20260506013043 70 179 7.0 10.0 0.00 0.00 0.00 42 1009.2
20260506012531 70 167 6.0 10.0 0.00 0.00 0.00 42 1009.0
20260506012030 70 152 7.0 10.0 0.00 0.00 0.00 43 1009.0
20260506011542 69 148 6.0 8.0 0.00 0.00 0.00 43 1009.0
20260506011030 70 155 5.0 8.0 0.00 0.00 0.00 43 1008.9
20260506010529 70 150 5.0 8.0 0.00 0.00 0.00 43 1008.7
20260506010100 70 165 5.0 8.0 0.00 0.00 0.00 42 1008.7
20260506005528 71 160 5.0 7.0 0.00 0.00 0.00 41 1008.6
20260506005028 72 162 4.0 8.0 0.00 0.00 0.00 40 1008.6
20260506004548 72 144 5.0 9.0 0.00 0.00 0.00 39 1008.6
20260506004028 72 200 5.0 9.0 0.00 0.00 0.00 38 1008.6
20260506003529 73 208 6.0 9.0 0.00 0.00 0.00 38 1008.5
20260506003045 73 205 5.0 9.0 0.00 0.00 0.00 38 1008.5
20260506002528 73 193 4.0 9.0 0.00 0.00 0.00 38 1008.5
20260506002030 73 161 5.0 10.0 0.00 0.00 0.00 37 1008.4
20260506001547 74 211 5.0 15.0 0.00 0.00 0.00 37 1008.3
20260506001029 74 159 7.0 15.0 0.00 0.00 0.00 37 1008.1
20260506000531 74 143 7.0 15.0 0.00 0.00 0.00 37 1008.1
20260506000042 74 213 8.0 14.0 0.00 0.00 0.00 37 1008.1
20260505235528 74 165 9.0 14.0 0.00 0.00 0.00 37 1007.9
20260505235029 74 159 6.0 14.0 0.00 0.00 0.00 38 1008.0
20260505234601 75 164 7.0 12.0 0.00 0.00 0.00 38 1007.9
20260505234035 75 186 8.0 12.0 0.00 0.00 0.00 38 1007.9
20260505233531 75 198 8.0 16.0 0.00 0.00 0.00 38 1007.8
20260505233050 75 184 7.0 16.0 0.00 0.00 0.00 38 1007.8
20260505232528 75 184 9.0 16.0 0.00 0.00 0.00 38 1007.9
20260505232029 76 189 7.0 15.0 0.00 0.00 0.00 38 1007.8
20260505231545 76 167 9.0 17.0 0.00 0.00 0.00 38 1007.8
20260505231030 76 176 9.0 17.0 0.00 0.00 0.00 38 1007.7
20260505230530 76 172 11.0 17.0 0.00 0.00 0.00 38 1007.7
20260505230043 76 167 10.0 15.0 0.00 0.00 0.00 39 1007.7
20260505225528 76 189 10.0 15.0 0.00 0.00 0.00 39 1007.7
20260505225030 76 174 9.0 19.0 0.00 0.00 0.00 38 1007.7
20260505224542 76 172 10.0 19.0 0.00 0.00 0.00 39 1007.7
20260505224033 76 185 8.0 14.0 0.00 0.00 0.00 39 1007.7
20260505223530 77 182 8.0 14.0 0.00 0.00 0.00 39 1007.7
20260505223047 77 173 10.0 16.0 0.00 0.00 0.00 38 1007.7
20260505222535 77 200 9.0 16.0 0.00 0.00 0.00 38 1007.7
20260505222032 77 184 10.0 17.0 0.00 0.00 0.00 37 1007.8
20260505221545 78 155 11.0 19.0 0.00 0.00 0.00 35 1007.7
20260505221031 78 186 10.0 23.0 0.00 0.00 0.00 31 1007.7
20260505220530 78 164 10.0 24.0 0.00 0.00 0.00 31 1007.6
20260505220045 78 155 11.0 24.0 0.00 0.00 0.00 31 1007.7
20260505215530 78 188 12.0 23.0 0.00 0.00 0.00 30 1007.7
20260505215030 78 215 10.0 23.0 0.00 0.00 0.00 30 1007.7
20260505214601 79 184 14.0 22.0 0.00 0.00 0.00 30 1007.7
20260505214028 79 202 13.0 22.0 0.00 0.00 0.00 30 1007.6
20260505213530 79 207 13.0 24.0 0.00 0.00 0.00 30 1007.6
20260505213046 80 181 12.0 24.0 0.00 0.00 0.00 30 1007.7
20260505212531 80 202 12.0 26.0 0.00 0.00 0.00 30 1007.6
20260505212029 81 193 12.0 29.0 0.00 0.00 0.00 31 1007.5
20260505211546 80 187 18.0 29.0 0.00 0.00 0.00 29 1007.5
20260505211033 80 215 14.0 26.0 0.00 0.00 0.00 31 1007.5
20260505210527 80 205 16.0 26.0 0.00 0.00 0.00 30 1007.6
20260505210049 80 176 10.0 26.0 0.00 0.00 0.00 33 1007.4
20260505205531 81 204 13.0 26.0 0.00 0.00 0.00 33 1007.6
20260505205030 81 179 14.0 25.0 0.00 0.00 0.00 32 1007.5
20260505204554 81 179 17.0 25.0 0.00 0.00 0.00 31 1007.3
20260505204027 81 202 9.0 22.0 0.00 0.00 0.00 33 1007.7
20260505203530 80 186 16.0 22.0 0.00 0.00 0.00 35 1007.6
20260505203049 80 200 12.0 21.0 0.00 0.00 0.00 34 1007.6
20260505202530 80 174 12.0 22.0 0.00 0.00 0.00 34 1007.6
20260505202027 80 216 14.0 22.0 0.00 0.00 0.00 33 1007.6
20260505201550 80 154 12.0 21.0 0.00 0.00 0.00 34 1007.7
20260505201028 80 229 12.0 19.0 0.00 0.00 0.00 34 1007.7
20260505200531 80 227 10.0 19.0 0.00 0.00 0.00 35 1007.7
20260505200058 80 215 12.0 19.0 0.00 0.00 0.00 37 1007.8
20260505195530 81 215 12.0 19.0 0.00 0.00 0.00 35 1007.7
20260505195029 81 150 11.0 22.0 0.00 0.00 0.00 35 1007.9
20260505194547 80 205 11.0 22.0 0.00 0.00 0.00 35 1007.7
20260505194031 80 223 12.0 22.0 0.00 0.00 0.00 37 1007.9
20260505193530 80 225 10.0 20.0 0.00 0.00 0.00 37 1008.0
20260505193048 79 185 11.0 21.0 0.00 0.00 0.00 40 1008.0
20260505192533 79 197 13.0 25.0 0.00 0.00 0.00 36 1008.2
20260505192030 79 141 13.0 25.0 0.00 0.00 0.00 37 1008.2
20260505191540 79 187 12.0 21.0 0.00 0.00 0.00 39 1008.2
20260505191030 79 163 9.0 19.0 0.00 0.00 0.00 40 1008.3
20260505190528 80 208 11.0 18.0 0.00 0.00 0.00 38 1008.3
20260505190039 79 178 8.0 21.0 0.00 0.00 0.00 38 1008.3
20260505185528 79 243 11.0 22.0 0.00 0.00 0.00 36 1008.4
20260505185030 79 196 11.0 22.0 0.00 0.00 0.00 37 1008.5
20260505184545 79 228 12.0 22.0 0.00 0.00 0.00 38 1008.5
20260505184031 79 176 9.0 18.0 0.00 0.00 0.00 40 1008.6
20260505183531 79 239 12.0 21.0 0.00 0.00 0.00 38 1008.7
20260505183044 79 240 11.0 21.0 0.00 0.00 0.00 38 1008.8
20260505182527 79 213 12.0 18.0 0.00 0.00 0.00 38 1008.8
20260505182028 79 220 11.0 18.0 0.00 0.00 0.00 38 1008.9
20260505181543 79 180 8.0 16.0 0.00 0.00 0.00 40 1008.9
20260505181029 79 216 10.0 15.0 0.00 0.00 0.00 39 1009.0
20260505180529 79 158 8.0 18.0 0.00 0.00 0.00 39 1008.9
20260505175530 78 235 12.0 18.0 0.00 0.00 0.00 38 1009.1
20260505175034 78 212 9.0 15.0 0.00 0.00 0.00 37 1009.2
20260505174559 78 218 6.0 15.0 0.00 0.00 0.00 39 1009.1
20260505174030 78 255 7.0 15.0 0.00 0.00 0.00 38 1009.0
20260505173531 78 203 6.0 14.0 0.00 0.00 0.00 40 1009.2
20260505173047 78 272 9.0 17.0 0.00 0.00 0.00 41 1009.3
20260505172527 78 209 10.0 22.0 0.00 0.00 0.00 39 1009.3
20260505172028 78 160 11.0 22.0 0.00 0.00 0.00 38 1009.3
20260505171543 78 195 9.0 19.0 0.00 0.00 0.00 39 1009.1
20260505171031 78 233 11.0 19.0 0.00 0.00 0.00 38 1009.3
20260505170530 78 238 8.0 21.0 0.00 0.00 0.00 40 1009.5
20260505170049 78 198 10.0 21.0 0.00 0.00 0.00 38 1009.6
20260505165529 77 217 10.0 21.0 0.00 0.00 0.00 39 1009.7
20260505165029 77 236 10.0 17.0 0.00 0.00 0.00 39 1009.8
20260505164549 78 212 6.0 21.0 0.00 0.00 0.00 42 1009.9
20260505164030 77 145 10.0 21.0 0.00 0.00 0.00 38 1010.1
20260505163531 77 221 9.0 18.0 0.00 0.00 0.00 38 1009.9
20260505163047 77 257 11.0 18.0 0.00 0.00 0.00 40 1010.1
20260505162530 77 190 9.0 19.0 0.00 0.00 0.00 40 1010.2
20260505162029 77 212 10.0 19.0 0.00 0.00 0.00 40 1010.3
20260505161543 77 190 9.0 17.0 0.00 0.00 0.00 41 1010.3
20260505161028 77 214 8.0 19.0 0.00 0.00 0.00 42 1010.4
20260505160530 77 203 8.0 19.0 0.00 0.00 0.00 45 1010.6
20260505153044 76 252 9.0 19.0 0.00 0.00 0.00 45 1010.7
20260505152535 76 206 6.0 13.0 0.00 0.00 0.00 47 1010.6
20260505152029 75 262 7.0 13.0 0.00 0.00 0.00 47 1010.7
20260505151544 75 217 7.0 16.0 0.00 0.00 0.00 48 1010.7
20260505151033 75 245 7.0 16.0 0.00 0.00 0.00 48 1010.7
20260505150534 74 154 7.0 15.0 0.00 0.00 0.00 48 1010.6
20260505140529 72 251 8.0 17.0 0.00 0.00 0.00 49 1010.8
20260505125031 66 161 9.0 14.0 0.00 0.00 0.00 60 1011.2
20260505124546 65 165 8.0 14.0 0.00 0.00 0.00 62 1011.2
20260505124029 65 184 8.0 14.0 0.00 0.00 0.00 61 1011.3
20260505123530 65 165 8.0 13.0 0.00 0.00 0.00 63 1011.3
20260505123101 64 179 7.0 13.0 0.00 0.00 0.00 64 1011.4
20260505122536 64 154 8.0 13.0 0.00 0.00 0.00 65 1011.4
20260505122035 64 202 8.0 13.0 0.00 0.00 0.00 65 1011.4
20260505121540 63 160 7.0 12.0 0.00 0.00 0.00 66 1011.5
20260505121029 63 177 7.0 14.0 0.00 0.00 0.00 66 1011.6
20260505120530 62 214 8.0 14.0 0.00 0.00 0.00 66 1011.5
20260505120046 62 185 8.0 14.0 0.00 0.00 0.00 66 1011.5
20260505115531 62 157 7.0 11.0 0.00 0.00 0.00 68 1011.4
20260505115035 61 164 7.0 12.0 0.00 0.00 0.00 68 1011.4
20260505114544 61 167 8.0 12.0 0.00 0.00 0.00 67 1011.4
20260505114032 61 160 7.0 9.0 0.00 0.00 0.00 68 1011.4
20260505113530 61 159 5.0 8.0 0.00 0.00 0.00 70 1011.3
20260505113041 60 159 5.0 8.0 0.00 0.00 0.00 71 1011.3
20260505112534 60 175 5.0 8.0 0.00 0.00 0.00 72 1011.1
20260505112032 59 162 5.0 8.0 0.00 0.00 0.00 72 1011.2
20260505111547 59 153 4.0 6.0 0.00 0.00 0.00 74 1011.1
20260505111032 58 150 4.0 6.0 0.00 0.00 0.00 73 1011.0
20260505110530 58 153 4.0 6.0 0.00 0.00 0.00 74 1011.1
20260505102032 57 149 5.0 6.0 0.00 0.00 0.00 76 1010.5
20260505101545 57 146 5.0 7.0 0.00 0.00 0.00 75 1010.7
20260505101029 58 143 5.0 7.0 0.00 0.00 0.00 74 1010.6
20260505100529 58 150 5.0 7.0 0.00 0.00 0.00 74 1010.6
20260505100050 58 169 2.0 5.0 0.00 0.00 0.00 74 1010.7
20260505095532 57 179 2.0 8.0 0.00 0.00 0.00 74 1010.6
20260505095033 57 158 3.0 8.0 0.00 0.00 0.00 75 1010.6
20260505094545 57 155 4.0 7.0 0.00 0.00 0.00 76 1010.3
20260505094031 57 141 4.0 7.0 0.00 0.00 0.00 75 1010.4
20260505093529 57 153 5.0 7.0 0.00 0.00 0.00 75 1010.3
20260505093043 57 149 5.0 7.0 0.00 0.00 0.00 75 1010.2
20260505092531 57 146 4.0 6.0 0.00 0.00 0.00 74 1010.3
20260505092028 58 143 4.0 8.0 0.00 0.00 0.00 74 1010.2
20260505091601 58 153 4.0 8.0 0.00 0.00 0.00 73 1010.2
20260505091029 58 161 5.0 8.0 0.00 0.00 0.00 72 1010.3
20260505090530 58 158 4.0 8.0 0.00 0.00 0.00 72 1010.2
20260505090047 59 160 5.0 8.0 0.00 0.00 0.00 72 1010.2
20260505085532 59 143 5.0 8.0 0.00 0.00 0.00 71 1010.2
20260505085030 59 163 5.0 8.0 0.00 0.00 0.00 71 1010.2
20260505084543 59 174 5.0 8.0 0.00 0.00 0.00 71 1010.2
20260505084029 59 163 4.0 7.0 0.00 0.00 0.00 71 1010.2
20260505083529 59 167 5.0 7.0 0.00 0.00 0.00 71 1010.2
20260505083041 59 153 5.0 7.0 0.00 0.00 0.00 71 1010.1
20260505082529 59 162 4.0 8.0 0.00 0.00 0.00 71 1010.1
20260505082029 59 194 5.0 10.0 0.00 0.00 0.00 71 1010.1
20260505081554 59 155 5.0 11.0 0.00 0.00 0.00 71 1010.1
20260505081029 59 158 4.0 11.0 0.00 0.00 0.00 71 1010.1
20260505080529 59 167 5.0 9.0 0.00 0.00 0.00 71 1010.0